sat.trackr.live / text

‹ back to catalog

STARLINK-31364

NORAD 59463 · 2024-068J

PAYLOAD ACTIVE UNKNOWN

§ Identity

Operator
Country
US
Launch date
2024-04-10
Launch site
AFETR
Launch vehicle
Mass (kg)
RCS (m²)

Purposes: comms

External: N2YO · Heavens-Above · Gunter

§ Orbital elements

Epoch: 2026-09-20T23:46:39.786528Z

Period
94.27 min
Inclination
43.0024°
Eccentricity
0.0000464
Mean motion
15.27560676 rev/d
Perigee alt
482.8 km
Apogee alt
483.4 km
Semi-major
6,861.2 km
B*
1.1328e-4
RAAN
7.9171°
Arg perigee
273.6974°
Mean anomaly
86.3824°
Rev number
13,843

§ Raw data

STARLINK-313641 59463U 24068J   26263.99073827  .00002855  00000+0  11328-3 0  99982 59463  43.0024   7.9171 0000464 273.6974  86.3824 15.27560676138434

JSON: /api/v1/satellites/59463 · /tle

For live sub-satellite position, see the globe view (requires WebGL).

§ Visibility from observer

Set your observer location to see the next 7 days of passes ≥ 10°. The values pass through the URL so the page stays shareable.

No JS? Fill the form by hand. The geolocation button needs JavaScript.